Weather History for KCLS - January, 2014

Change the Weather History Date:

Friday, January 17, 2014

  Actual Average (KOLM) Record (KOLM)
Temperature  
Mean Temperature 37 °F 40 °F  
Max Temperature 41 °F 46 °F 58 °F (1977)
Min Temperature 33 °F 34 °F 8 °F (1950)
Degree Days  
Heating Degree Days 28 25  
Month to date heating degree days 435  
Since 1 July heating degree days 2705  
Cooling Degree Days 0 0  
Month to date cooling degree days 0  
Year to date cooling degree days 0  
Moisture  
Dew Point 37 °F    
Average Humidity 97    
Maximum Humidity 100    
Minimum Humidity 87    
Precipitation  
Precipitation 0.00 in 0.27 in 2.21 in (2005)
Month to date precipitation 4.43  
Year to date precipitation 4.43  
Sea Level Pressure  
Sea Level Pressure 30.27 in    
Wind  
Wind Speed 6 mph (NE)    
Max Wind Speed 9 mph    
Max Gust Speed -    
Visibility 6 miles    
Events      
T = Trace of Precipitation, MM = Missing Value Source: NWS Daily Summary

Daily Weather History Graph

Daily Weather History Graph

Search for Another Location

Airport or City:

Trip Planner

Search our weather history database for the weather conditions in past years. The results will help you decide how hot, cold, wet, or windy it might be!

Date:

Astronomy

Jan. 17, 2014 Rise Set
Actual Time 7:50 AM PST 4:53 PM PST
Civil Twilight 7:16 AM PST 5:27 PM PST
Nautical Twilight 6:39 AM PST 6:05 PM PST
Astronomical Twilight 6:03 AM PST 6:41 PM PST
Moon 6:55 PM PST (1/17) 8:13 AM PST (1/17)
Length of Visible Light 10h 10m
Length of Day
9h 03m
Full, 98% of the Moon is Illuminated
Jan 17
Full
Jan 23
Last Quarter
Jan 30
New
Feb 6
First Quarter
Feb 14
Full

Hourly Weather History & Observations

Time (PST) Temp. Windchill Dew Point Humidity Pressure Visibility Wind Dir Wind Speed Gust Speed Precip Events Conditions
12:15 AM 37.4 °F 32.1 °F 37.4 °F 100% 30.36 in 2.0 mi NE 6.9 mph - N/A   Overcast
12:35 AM 37.4 °F 32.1 °F 37.4 °F 100% 30.35 in 1.8 mi North 6.9 mph - N/A   Overcast
12:55 AM 37.4 °F 33.8 °F 37.4 °F 100% 30.35 in 1.2 mi NE 4.6 mph - N/A   Overcast
1:15 AM 39.2 °F 35.0 °F 39.2 °F 100% 30.34 in 0.8 mi NE 5.8 mph - N/A   Overcast
1:35 AM 37.4 °F 30.8 °F 37.4 °F 100% 30.34 in 2.5 mi NNE 9.2 mph - N/A   Overcast
1:55 AM 37.4 °F 30.8 °F 37.4 °F 100% 30.35 in 3.0 mi NE 9.2 mph - N/A   Overcast
2:15 AM 37.4 °F 31.4 °F 37.4 °F 100% 30.34 in 3.0 mi NNE 8.1 mph - N/A   Overcast
2:35 AM 37.4 °F 32.8 °F 37.4 °F 100% 30.34 in 1.8 mi NNE 5.8 mph - N/A   Overcast
2:55 AM 37.4 °F 32.1 °F 37.4 °F 100% 30.34 in 1.0 mi North 6.9 mph - N/A   Overcast
3:15 AM 37.4 °F 31.4 °F 37.4 °F 100% 30.34 in 2.0 mi NE 8.1 mph - N/A   Overcast
3:35 AM 37.4 °F 30.8 °F 37.4 °F 100% 30.33 in 4.0 mi NNE 9.2 mph - N/A   Overcast
3:55 AM 37.4 °F 30.8 °F 37.4 °F 100% 30.32 in 5.0 mi NNE 9.2 mph - N/A   Overcast
4:15 AM 37.4 °F 32.1 °F 37.4 °F 100% 30.32 in 4.0 mi NE 6.9 mph - N/A   Overcast
4:35 AM 37.4 °F 32.8 °F 37.4 °F 100% 30.31 in 3.0 mi NE 5.8 mph - N/A   Overcast
4:55 AM 35.6 °F 29.2 °F 35.6 °F 100% 30.31 in 3.0 mi NNE 8.1 mph - N/A   Overcast
5:15 AM 35.6 °F 28.6 °F 35.6 °F 100% 30.31 in 5.0 mi NNE 9.2 mph - N/A   Overcast
5:35 AM 35.6 °F 29.2 °F 35.6 °F 100% 30.31 in 5.0 mi North 8.1 mph - N/A   Overcast
5:55 AM 35.6 °F 28.6 °F 35.6 °F 100% 30.31 in 9.0 mi NNE 9.2 mph - N/A   Overcast
6:15 AM 35.6 °F 30.7 °F 35.6 °F 100% 30.30 in 5.0 mi NE 5.8 mph - N/A   Overcast
6:35 AM 35.6 °F 30.7 °F 35.6 °F 100% 30.30 in 5.0 mi NE 5.8 mph - N/A   Overcast
6:55 AM 35.6 °F 31.7 °F 35.6 °F 100% 30.30 in 4.0 mi ENE 4.6 mph - N/A   Overcast
7:15 AM 35.6 °F 31.7 °F 35.6 °F 100% 30.29 in 5.0 mi NE 4.6 mph - N/A   Overcast
7:35 AM 35.6 °F 30.7 °F 35.6 °F 100% 30.29 in 6.0 mi NE 5.8 mph - N/A   Overcast
7:55 AM 35.6 °F 30.7 °F 35.6 °F 100% 30.30 in 9.0 mi NNE 5.8 mph - N/A   Overcast
8:15 AM 35.6 °F 29.9 °F 35.6 °F 100% 30.30 in 9.0 mi NNE 6.9 mph - N/A   Overcast
8:35 AM 35.6 °F 30.7 °F 35.6 °F 100% 30.31 in 8.0 mi North 5.8 mph - N/A   Overcast
8:55 AM 35.6 °F 29.9 °F 35.6 °F 100% 30.31 in 9.0 mi NNE 6.9 mph - N/A   Overcast
9:15 AM 35.6 °F 31.7 °F 35.6 °F 100% 30.31 in 1.8 mi NNW 4.6 mph - N/A   Overcast
9:35 AM 35.6 °F 32.8 °F 35.6 °F 100% 30.31 in 7.0 mi North 3.5 mph - N/A   Overcast
9:55 AM 35.6 °F 32.8 °F 35.6 °F 100% 30.30 in 2.0 mi North 3.5 mph - N/A   Overcast
10:15 AM 35.6 °F 31.7 °F 35.6 °F 100% 30.30 in 1.8 mi North 4.6 mph - N/A   Overcast
10:35 AM 35.6 °F 29.9 °F 35.6 °F 100% 30.30 in 5.0 mi NNE 6.9 mph - N/A   Overcast
10:55 AM 35.6 °F 30.7 °F 35.6 °F 100% 30.30 in 4.0 mi NE 5.8 mph - N/A   Overcast
11:15 AM 37.4 °F 32.8 °F 35.6 °F 93% 30.29 in 10.0 mi NNE 5.8 mph - N/A   Overcast
11:35 AM 37.4 °F 32.1 °F 35.6 °F 93% 30.29 in 10.0 mi NNE 6.9 mph - N/A   Overcast
11:55 AM 37.4 °F 32.1 °F 35.6 °F 93% 30.28 in 10.0 mi NNE 6.9 mph - N/A   Overcast
12:15 PM 39.2 °F 33.6 °F 37.4 °F 93% 30.27 in 10.0 mi NE 8.1 mph - N/A   Overcast
12:35 PM 39.2 °F 33.6 °F 37.4 °F 93% 30.26 in 10.0 mi NNE 8.1 mph - N/A   Overcast
12:55 PM 39.2 °F 34.2 °F 37.4 °F 93% 30.25 in 10.0 mi NE 6.9 mph - N/A   Overcast
1:15 PM 39.2 °F 33.6 °F 37.4 °F 93% 30.24 in 10.0 mi NNE 8.1 mph - N/A   Overcast
1:35 PM 41.0 °F 37.1 °F 37.4 °F 87% 30.24 in 10.0 mi NNE 5.8 mph - N/A   Overcast
1:55 PM 41.0 °F 38.0 °F 37.4 °F 87% 30.23 in 10.0 mi NNE 4.6 mph - N/A   Overcast
2:15 PM 41.0 °F 39.0 °F 37.4 °F 87% 30.23 in 10.0 mi NNE 3.5 mph - N/A   Overcast
2:35 PM 41.0 °F 37.1 °F 37.4 °F 87% 30.23 in 10.0 mi NNE 5.8 mph - N/A   Overcast
2:55 PM 41.0 °F 37.1 °F 37.4 °F 87% 30.22 in 10.0 mi NNE 5.8 mph - N/A   Overcast
3:15 PM 41.0 °F 38.0 °F 37.4 °F 87% 30.22 in 5.0 mi ENE 4.6 mph - N/A   Overcast
3:35 PM 39.2 °F 35.0 °F 37.4 °F 93% 30.23 in 10.0 mi NE 5.8 mph - N/A   Overcast
3:55 PM 39.2 °F 35.0 °F 37.4 °F 93% 30.23 in 10.0 mi NE 5.8 mph - N/A   Overcast
4:15 PM 39.2 °F 35.9 °F 37.4 °F 93% 30.23 in 7.0 mi North 4.6 mph - N/A   Overcast
4:35 PM 39.2 °F 35.0 °F 37.4 °F 93% 30.23 in 10.0 mi NNE 5.8 mph - N/A   Overcast
4:55 PM 39.2 °F 35.0 °F 37.4 °F 93% 30.23 in 10.0 mi NNE 5.8 mph - N/A   Overcast
5:15 PM 39.2 °F 37.0 °F 37.4 °F 93% 30.23 in 10.0 mi North 3.5 mph - N/A   Overcast
5:35 PM 39.2 °F 37.0 °F 37.4 °F 93% 30.23 in 10.0 mi North 3.5 mph - N/A   Overcast
5:55 PM 39.2 °F 35.9 °F 37.4 °F 93% 30.23 in 9.0 mi SE 4.6 mph - N/A   Overcast
6:15 PM 39.2 °F - 37.4 °F 93% 30.23 in 10.0 mi Calm Calm - N/A   Overcast
6:35 PM 39.2 °F 35.9 °F 37.4 °F 93% 30.23 in 10.0 mi South 4.6 mph - N/A   Overcast
6:55 PM 39.2 °F - 37.4 °F 93% 30.23 in 10.0 mi Calm Calm - N/A   Overcast
7:15 PM 39.2 °F - 37.4 °F 93% 30.22 in 7.0 mi Calm Calm - N/A   Overcast
7:35 PM 39.2 °F 37.0 °F 37.4 °F 93% 30.22 in 5.0 mi SSE 3.5 mph - N/A   Overcast
7:55 PM 37.4 °F 32.8 °F 37.4 °F 100% 30.22 in 1.0 mi South 5.8 mph - N/A   Overcast
8:15 PM 37.4 °F 33.8 °F 37.4 °F 100% 30.22 in 1.0 mi South 4.6 mph - N/A   Overcast
8:35 PM 37.4 °F 33.8 °F 37.4 °F 100% 30.23 in 1.5 mi South 4.6 mph - N/A   Overcast
8:55 PM 37.4 °F 34.9 °F 37.4 °F 100% 30.23 in 5.0 mi SSW 3.5 mph - N/A   Overcast
9:15 PM 37.4 °F 32.8 °F 35.6 °F 93% 30.23 in 6.0 mi SSE 5.8 mph - N/A   Overcast
9:35 PM 35.6 °F 30.7 °F 35.6 °F 100% 30.23 in 8.0 mi SSE 5.8 mph - N/A   Overcast
9:55 PM 35.6 °F 30.7 °F 35.6 °F 100% 30.22 in 7.0 mi South 5.8 mph - N/A   Overcast
10:15 PM 35.6 °F 30.7 °F 35.6 °F 100% 30.22 in 4.0 mi South 5.8 mph - N/A   Overcast
10:35 PM 35.6 °F 30.7 °F 35.6 °F 100% 30.22 in 4.0 mi South 5.8 mph - N/A   Overcast
10:55 PM 35.6 °F 29.9 °F 33.8 °F 93% 30.22 in 4.0 mi SSE 6.9 mph - N/A   Overcast
11:15 PM 33.8 °F 28.6 °F 33.8 °F 100% 30.23 in 4.0 mi South 5.8 mph - N/A   Overcast
11:35 PM 33.8 °F 28.6 °F 33.8 °F 100% 30.23 in 5.0 mi SSE 5.8 mph - N/A   Overcast
11:55 PM 33.8 °F 28.6 °F 33.8 °F 100% 30.22 in 4.0 mi South 5.8 mph - N/A   Overcast